TimeEDT,TemperatureF,Dew PointF,Humidity,Sea Level PressureIn,VisibilityMPH,Wind Direction,Wind SpeedMPH,Gust SpeedMPH,PrecipitationIn,Events,Conditions,WindDirDegrees,DateUTC
12:15 AM,71.1,69.4,95,29.94,5.0,Calm,Calm,-,0.02,Rain,Light Rain,0,2013-07-08 04:15:00
12:35 AM,70.7,69.3,95,29.94,5.0,Calm,Calm,-,0.02,,Clear,0,2013-07-08 04:35:00
12:55 AM,70.7,69.3,95,29.94,5.0,Calm,Calm,-,0.02,,Clear,0,2013-07-08 04:55:00
1:15 AM,70.7,69.3,95,29.94,3.0,Calm,Calm,-,N/A,,Scattered Clouds,0,2013-07-08 05:15:00
1:35 AM,70.7,69.3,95,29.94,4.0,Calm,Calm,-,N/A,,Mostly Cloudy,0,2013-07-08 05:35:00
1:55 AM,70.7,69.3,95,29.94,5.0,NW,4.6,-,0.01,Rain,Rain,310,2013-07-08 05:55:00
2:15 AM,70.7,69.3,95,29.94,5.0,WNW,3.5,-,0.01,Rain,Light Rain,290,2013-07-08 06:15:00
2:35 AM,70.7,69.1,95,29.94,7.0,Calm,Calm,-,0.01,,Light Drizzle,0,2013-07-08 06:35:00
2:55 AM,70.7,68.9,94,29.93,3.0,Calm,Calm,-,0.01,,Mostly Cloudy,0,2013-07-08 06:55:00
3:15 AM,70.0,68.5,95,29.93,3.0,Calm,Calm,-,N/A,,Scattered Clouds,0,2013-07-08 07:15:00
3:35 AM,70.3,68.9,95,29.94,3.0,Calm,Calm,-,N/A,,Mostly Cloudy,0,2013-07-08 07:35:00
3:55 AM,70.0,68.5,95,29.93,4.0,Calm,Calm,-,N/A,,Scattered Clouds,0,2013-07-08 07:55:00
4:15 AM,69.4,68.2,96,29.93,4.0,Calm,Calm,-,N/A,,Scattered Clouds,0,2013-07-08 08:15:00
4:35 AM,69.8,68.4,95,29.94,5.0,NW,3.5,-,N/A,,Mostly Cloudy,310,2013-07-08 08:35:00
4:55 AM,69.8,68.4,95,29.94,5.0,NNW,3.5,-,N/A,,Overcast,330,2013-07-08 08:55:00
5:15 AM,69.8,68.4,95,29.94,7.0,NNW,3.5,-,N/A,,Overcast,340,2013-07-08 09:15:00
5:35 AM,69.8,68.0,94,29.95,5.0,NNW,3.5,-,0.01,Rain,Light Rain,330,2013-07-08 09:35:00
5:55 AM,69.8,68.0,94,29.95,7.0,WNW,5.8,-,0.01,Rain,Light Rain,290,2013-07-08 09:55:00
6:15 AM,69.8,67.6,93,29.96,5.0,NNW,3.5,-,N/A,,Overcast,330,2013-07-08 10:15:00
6:35 AM,69.8,67.6,93,29.96,5.0,NW,4.6,-,N/A,,Overcast,310,2013-07-08 10:35:00
7:15 AM,70.2,68.0,93,29.96,5.0,Calm,Calm,-,N/A,,Overcast,0,2013-07-08 11:15:00
7:35 AM,70.3,68.2,93,29.96,7.0,Calm,Calm,-,N/A,,Overcast,0,2013-07-08 11:35:00
7:55 AM,70.9,68.4,92,29.97,7.0,Calm,Calm,-,N/A,,Overcast,0,2013-07-08 11:55:00
8:15 AM,70.9,68.9,93,29.97,5.0,Calm,Calm,-,N/A,Rain,Light Rain,0,2013-07-08 12:15:00
8:35 AM,71.6,68.9,91,29.98,7.0,Calm,Calm,-,N/A,Rain,Light Rain,0,2013-07-08 12:35:00
8:55 AM,71.2,68.9,92,29.98,5.0,Calm,Calm,-,N/A,Rain,Light Rain,0,2013-07-08 12:55:00
9:15 AM,71.8,69.1,91,29.98,7.0,Calm,Calm,-,0.01,Rain,Light Rain,0,2013-07-08 13:15:00
9:35 AM,72.5,69.6,91,29.98,7.0,Calm,Calm,-,0.01,,Overcast,0,2013-07-08 13:35:00
9:55 AM,72.5,69.4,90,29.99,4.0,Calm,Calm,-,0.01,,Light Drizzle,0,2013-07-08 13:55:00
10:15 AM,73.2,70.0,90,29.99,5.0,Calm,Calm,-,N/A,,Light Drizzle,0,2013-07-08 14:15:00
10:35 AM,74.3,69.3,84,29.99,10.0,Calm,Calm,-,N/A,,Overcast,0,2013-07-08 14:35:00
10:55 AM,75.2,68.9,81,29.99,10.0,Calm,Calm,-,N/A,,Overcast,0,2013-07-08 14:55:00
11:15 AM,76.8,68.2,75,29.98,10.0,ESE,3.5,-,N/A,,Mostly Cloudy,110,2013-07-08 15:15:00
11:35 AM,77.7,69.4,76,29.98,10.0,East,4.6,-,N/A,,Mostly Cloudy,100,2013-07-08 15:35:00
11:55 AM,77.0,68.4,75,29.98,10.0,ESE,3.5,-,N/A,,Overcast,110,2013-07-08 15:55:00
12:15 PM,78.1,69.1,74,29.98,10.0,East,5.8,-,N/A,,Mostly Cloudy,80,2013-07-08 16:15:00
12:35 PM,79.0,69.4,72,29.98,10.0,ESE,4.6,-,N/A,,Clear,110,2013-07-08 16:35:00
12:55 PM,80.1,68.0,67,29.97,10.0,ESE,4.6,-,N/A,,Scattered Clouds,110,2013-07-08 16:55:00
1:15 PM,79.7,67.8,67,29.98,10.0,ENE,3.5,-,N/A,,Overcast,70,2013-07-08 17:15:00
1:35 PM,78.4,68.7,72,29.97,10.0,ESE,3.5,-,N/A,,Mostly Cloudy,110,2013-07-08 17:35:00
1:55 PM,77.9,68.7,73,29.97,10.0,SE,3.5,-,N/A,,Mostly Cloudy,130,2013-07-08 17:55:00
2:15 PM,77.4,71.1,81,29.97,10.0,Calm,Calm,-,N/A,,Mostly Cloudy,0,2013-07-08 18:15:00
2:35 PM,77.5,70.7,79,29.96,10.0,SE,3.5,-,N/A,,Mostly Cloudy,130,2013-07-08 18:35:00
2:55 PM,77.0,69.1,76,29.97,10.0,Calm,Calm,-,N/A,Rain,Light Rain,0,2013-07-08 18:55:00
3:15 PM,75.9,71.2,85,29.97,7.0,Calm,Calm,-,N/A,Rain,Light Rain,0,2013-07-08 19:15:00
3:35 PM,73.6,69.4,87,29.99,1.5,West,8.1,16.1,0.35,Rain-Thunderstorm,Heavy Thunderstorms and Rain,270,2013-07-08 19:35:00
3:55 PM,71.1,68.9,93,30.00,1.0,Calm,Calm,-,0.98,Rain-Thunderstorm,Heavy Thunderstorms and Rain,0,2013-07-08 19:55:00
4:15 PM,71.1,68.9,93,30.00,3.0,Calm,Calm,-,0.06,Rain-Thunderstorm,Thunderstorms and Rain,0,2013-07-08 20:15:00
4:35 PM,71.6,69.1,92,30.00,7.0,Calm,Calm,-,0.07,,Light Drizzle,0,2013-07-08 20:35:00
4:55 PM,72.3,68.9,89,30.00,10.0,Calm,Calm,-,0.07,,Overcast,0,2013-07-08 20:55:00
5:15 PM,72.9,69.8,90,30.00,10.0,Calm,Calm,-,N/A,,Overcast,0,2013-07-08 21:15:00
5:35 PM,72.5,69.8,91,30.01,10.0,Calm,Calm,-,N/A,,Overcast,0,2013-07-08 21:35:00
5:55 PM,73.4,70.7,91,30.00,10.0,Calm,Calm,-,N/A,Thunderstorm,Overcast,0,2013-07-08 21:55:00
6:15 PM,72.5,68.9,88,30.00,10.0,ESE,4.6,-,N/A,,Overcast,120,2013-07-08 22:15:00
6:35 PM,71.4,68.0,89,30.01,10.0,ESE,4.6,-,N/A,,Overcast,120,2013-07-08 22:35:00
6:55 PM,70.9,67.6,89,30.01,10.0,ESE,3.5,-,N/A,,Overcast,120,2013-07-08 22:55:00
7:15 PM,70.3,67.3,90,30.02,10.0,Calm,Calm,-,N/A,,Overcast,0,2013-07-08 23:15:00
7:35 PM,70.2,67.3,91,30.03,10.0,SE,3.5,-,N/A,Rain,Light Rain,130,2013-07-08 23:35:00
7:55 PM,69.8,67.3,92,30.03,7.0,Calm,Calm,-,N/A,,Light Drizzle,0,2013-07-08 23:55:00
8:15 PM,69.3,67.1,93,30.04,10.0,ESE,3.5,-,N/A,Rain,Light Rain,120,2013-07-09 00:15:00
8:35 PM,69.1,66.7,92,30.04,5.0,SE,3.5,-,0.02,Rain,Rain,130,2013-07-09 00:35:00
8:55 PM,68.9,66.6,92,30.04,10.0,Calm,Calm,-,0.04,Rain,Rain,0,2013-07-09 00:55:00
9:15 PM,68.5,66.6,93,30.05,7.0,Calm,Calm,-,N/A,,Drizzle,0,2013-07-09 01:15:00
9:35 PM,68.4,66.4,93,30.06,7.0,Calm,Calm,-,0.01,Rain,Rain,0,2013-07-09 01:35:00
9:55 PM,68.0,66.2,94,30.07,7.0,Calm,Calm,-,0.01,,Light Drizzle,0,2013-07-09 01:55:00
10:15 PM,68.0,66.2,94,30.07,7.0,Calm,Calm,-,N/A,,Drizzle,0,2013-07-09 02:15:00
10:35 PM,68.0,66.2,94,30.07,7.0,Calm,Calm,-,N/A,Rain,Rain,0,2013-07-09 02:35:00
10:55 PM,68.0,66.2,94,30.08,5.0,Calm,Calm,-,0.01,,Light Drizzle,0,2013-07-09 02:55:00
11:15 PM,67.6,66.2,95,30.08,10.0,East,3.5,-,N/A,,Overcast,90,2013-07-09 03:15:00
11:35 PM,67.5,66.2,96,30.08,10.0,ENE,4.6,-,N/A,,Overcast,70,2013-07-09 03:35:00
11:55 PM,67.3,65.7,95,30.08,10.0,Calm,Calm,-,N/A,,Overcast,0,2013-07-09 03:55:00